Previsão horária em Almassora

Hoje, 14 Junho, Segunda-feira

Tempo Temperatura Precipitação Vento Pressão Humidade
00:00 +26°C° 0 mm 2 m/s 756 mmHg 43%
01:00 +26°C° 0 mm 2 m/s 755 mmHg 42%
02:00 +25°C° 0 mm 2 m/s 755 mmHg 41%
03:00 +25°C° 0 mm 2 m/s 755 mmHg 40%
04:00 +26°C° 0 mm 2 m/s 755 mmHg 38%
05:00 +27°C° 0 mm 2 m/s 755 mmHg 36%
06:00 +27°C° 0 mm 1 m/s 755 mmHg 34%
07:00 +29°C° 0 mm 2 m/s 755 mmHg 31%
08:00 +30°C° 0 mm 2 m/s 755 mmHg 29%
09:00 +33°C° 0 mm 3 m/s 755 mmHg 26%
10:00 +34°C° 0 mm 3 m/s 755 mmHg 25%
11:00 +34°C° 0 mm 3 m/s 755 mmHg 24%
12:00 +35°C° 0 mm 4 m/s 755 mmHg 23%
13:00 +35°C° 0 mm 4 m/s 755 mmHg 23%
14:00 +35°C° 0 mm 4 m/s 754 mmHg 24%
15:00 +35°C° 0 mm 4 m/s 754 mmHg 24%
16:00 +34°C° 0 mm 3 m/s 754 mmHg 25%
17:00 +33°C° 0 mm 3 m/s 754 mmHg 27%
18:00 +31°C° 0 mm 3 m/s 753 mmHg 28%
19:00 +30°C° 0 mm 2 m/s 754 mmHg 31%
20:00 +29°C° 0 mm 1 m/s 754 mmHg 35%
21:00 +27°C° 0 mm 1 m/s 754 mmHg 38%
22:00 +27°C° 0 mm 1 m/s 754 mmHg 40%
23:00 +26°C° 0 mm 2 m/s 754 mmHg 42%

Amanhã, 15 Junho, Terça-feira

Tempo Temperatura Precipitação Vento Pressão Humidade
00:00 +26°C° 0 mm 2 m/s 754 mmHg 45%
01:00 +26°C° 0 mm 2 m/s 754 mmHg 44%
02:00 +25°C° 0 mm 2 m/s 754 mmHg 44%
03:00 +25°C° 0 mm 1 m/s 754 mmHg 44%
04:00 +26°C° 0 mm 1 m/s 754 mmHg 42%
05:00 +26°C° 0 mm 1 m/s 754 mmHg 40%
06:00 +27°C° 0 mm 1 m/s 754 mmHg 38%
07:00 +28°C° 0.1 mm 1 m/s 754 mmHg 36%
08:00 +29°C° 0.1 mm 1 m/s 754 mmHg 33%
09:00 +31°C° 0.1 mm 1 m/s 755 mmHg 30%
10:00 +31°C° 0 mm 2 m/s 754 mmHg 29%
11:00 +32°C° 0 mm 2 m/s 754 mmHg 28%
12:00 +34°C° 0 mm 3 m/s 754 mmHg 28%
13:00 +34°C° 0 mm 3 m/s 754 mmHg 29%
14:00 +34°C° 0 mm 3 m/s 754 mmHg 30%
15:00 +33°C° 0 mm 3 m/s 753 mmHg 31%
16:00 +33°C° 0 mm 3 m/s 753 mmHg 32%
17:00 +31°C° 0 mm 2 m/s 753 mmHg 34%
18:00 +31°C° 0 mm 2 m/s 753 mmHg 36%
19:00 +30°C° 0 mm 2 m/s 753 mmHg 39%
20:00 +29°C° 0 mm 1 m/s 753 mmHg 43%
21:00 +28°C° 0 mm 1 m/s 754 mmHg 46%
22:00 +27°C° 0 mm 1 m/s 753 mmHg 47%
23:00 +27°C° 0 mm 1 m/s 753 mmHg 49%

Depois de amanhã, 16 Junho, Quarta-feira

Tempo Temperatura Precipitação Vento Pressão Humidade
00:00 +27°C° 0 mm 1 m/s 753 mmHg 50%
01:00 +26°C° 0 mm 1 m/s 753 mmHg 51%
02:00 +26°C° 0 mm 1 m/s 752 mmHg 51%
03:00 +23°C° 0 mm 0 m/s 752 mmHg 52%
04:00 +26°C° 0 mm 1 m/s 752 mmHg 50%
05:00 +26°C° 0 mm 1 m/s 752 mmHg 48%
06:00 +27°C° 0 mm 1 m/s 752 mmHg 46%
07:00 +28°C° 0 mm 1 m/s 752 mmHg 44%
08:00 +29°C° 0 mm 2 m/s 751 mmHg 41%
09:00 +31°C° 0 mm 2 m/s 751 mmHg 38%
10:00 +31°C° 0 mm 2 m/s 751 mmHg 39%
11:00 +31°C° 0 mm 3 m/s 751 mmHg 39%
12:00 +31°C° 0 mm 3 m/s 752 mmHg 39%
13:00 +31°C° 0 mm 2 m/s 751 mmHg 39%
14:00 +31°C° 0 mm 2 m/s 751 mmHg 40%
15:00 +31°C° 0 mm 2 m/s 751 mmHg 41%
16:00 +30°C° 0 mm 2 m/s 750 mmHg 42%
17:00 +30°C° 0 mm 3 m/s 749 mmHg 42%
18:00 +30°C° 0 mm 3 m/s 748 mmHg 43%
19:00 +29°C° 0 mm 3 m/s 749 mmHg 47%
20:00 +28°C° 0 mm 2 m/s 749 mmHg 51%
21:00 +27°C° 0 mm 1 m/s 750 mmHg 54%
22:00 +27°C° 0 mm 1 m/s 750 mmHg 55%
23:00 +27°C° 0 mm 1 m/s 750 mmHg 56%

17 Junho, Quinta-feira

Tempo Temperatura Precipitação Vento Pressão Humidade
00:00 +24°C° 0 mm 0 m/s 750 mmHg 58%
01:00 +26°C° 0.1 mm 1 m/s 749 mmHg 59%
02:00 +26°C° 0.1 mm 1 m/s 749 mmHg 60%
03:00 +25°C° 0.1 mm 1 m/s 748 mmHg 61%
04:00 +25°C° 0.2 mm 2 m/s 748 mmHg 63%
05:00 +24°C° 0.2 mm 3 m/s 748 mmHg 65%
06:00 +23°C° 0.2 mm 4 m/s 749 mmHg 67%
07:00 +25°C° 0 mm 4 m/s 749 mmHg 59%
08:00 +27°C° 0 mm 3 m/s 749 mmHg 52%
09:00 +29°C° 0 mm 3 m/s 749 mmHg 44%
10:00 +29°C° 0.1 mm 3 m/s 749 mmHg 47%
11:00 +29°C° 0.1 mm 4 m/s 749 mmHg 49%
12:00 +29°C° 0.1 mm 4 m/s 749 mmHg 51%
13:00 +29°C° 0.1 mm 4 m/s 749 mmHg 51%
14:00 +29°C° 0.1 mm 4 m/s 749 mmHg 51%
15:00 +29°C° 0.1 mm 3 m/s 749 mmHg 50%
16:00 +28°C° 0 mm 3 m/s 749 mmHg 52%
17:00 +28°C° 0 mm 3 m/s 749 mmHg 54%
18:00 +28°C° 0 mm 3 m/s 750 mmHg 56%
19:00 +27°C° 0 mm 2 m/s 750 mmHg 61%
20:00 +26°C° 0 mm 2 m/s 750 mmHg 65%
21:00 +25°C° 0 mm 1 m/s 751 mmHg 70%
22:00 +25°C° 0 mm 2 m/s 751 mmHg 72%
23:00 +24°C° 0 mm 2 m/s 751 mmHg 74%

18 Junho, Sexta-feira

Tempo Temperatura Precipitação Vento Pressão Humidade
00:00 +24°C° 0 mm 3 m/s 751 mmHg 75%
01:00 +24°C° 0 mm 2 m/s 751 mmHg 75%
02:00 +24°C° 0 mm 2 m/s 751 mmHg 76%
03:00 +24°C° 0 mm 2 m/s 751 mmHg 76%
04:00 +24°C° 0 mm 2 m/s 751 mmHg 73%
05:00 +24°C° 0 mm 2 m/s 751 mmHg 71%
06:00 +25°C° 0 mm 2 m/s 751 mmHg 69%
07:00 +26°C° 0 mm 3 m/s 752 mmHg 65%
08:00 +27°C° 0 mm 3 m/s 752 mmHg 61%
09:00 +28°C° 0 mm 4 m/s 752 mmHg 57%
10:00 +28°C° 0 mm 4 m/s 752 mmHg 56%
11:00 +29°C° 0 mm 4 m/s 752 mmHg 54%
12:00 +29°C° 0 mm 4 m/s 752 mmHg 53%
13:00 +29°C° 0 mm 4 m/s 752 mmHg 51%
14:00 +29°C° 0 mm 4 m/s 752 mmHg 50%
15:00 +28°C° 0 mm 3 m/s 752 mmHg 49%
16:00 +28°C° 0 mm 3 m/s 752 mmHg 49%
17:00 +27°C° 0 mm 3 m/s 752 mmHg 50%
18:00 +26°C° 0 mm 2 m/s 752 mmHg 51%
19:00 +26°C° 0.3 mm 2 m/s 752 mmHg 56%
20:00 +25°C° 0.3 mm 2 m/s 752 mmHg 62%
21:00 +24°C° 0.3 mm 2 m/s 753 mmHg 67%
22:00 +24°C° 0.1 mm 2 m/s 752 mmHg 69%
23:00 +22°C° 0.1 mm 3 m/s 752 mmHg 70%

19 Junho, Sábado

Tempo Temperatura Precipitação Vento Pressão Humidade
00:00 +22°C° 0.1 mm 3 m/s 752 mmHg 71%
01:00 +22°C° 0.1 mm 3 m/s 752 mmHg 73%
02:00 +22°C° 0.1 mm 3 m/s 751 mmHg 75%
03:00 +22°C° 0.1 mm 3 m/s 751 mmHg 77%
04:00 +23°C° 0.1 mm 2 m/s 751 mmHg 76%
05:00 +23°C° 0.1 mm 2 m/s 751 mmHg 74%
06:00 +23°C° 0.1 mm 2 m/s 751 mmHg 73%
07:00 +24°C° 0 mm 2 m/s 750 mmHg 71%
08:00 +25°C° 0 mm 3 m/s 750 mmHg 69%
09:00 +27°C° 0 mm 4 m/s 749 mmHg 68%
10:00 +26°C° 0.3 mm 3 m/s 749 mmHg 72%
11:00 +25°C° 0.3 mm 2 m/s 749 mmHg 77%
12:00 +25°C° 0.3 mm 2 m/s 748 mmHg 82%
13:00 +26°C° 0.1 mm 3 m/s 748 mmHg 71%
14:00 +27°C° 0.1 mm 4 m/s 748 mmHg 59%
15:00 +28°C° 0.1 mm 4 m/s 748 mmHg 48%
16:00 +28°C° 0 mm 4 m/s 748 mmHg 44%
17:00 +28°C° 0 mm 4 m/s 748 mmHg 40%
18:00 +29°C° 0 mm 4 m/s 748 mmHg 36%
19:00 +27°C° 0 mm 4 m/s 749 mmHg 44%
20:00 +26°C° 0 mm 3 m/s 750 mmHg 52%
21:00 +24°C° 0 mm 3 m/s 750 mmHg 60%
22:00 +24°C° 0 mm 3 m/s 751 mmHg 61%
23:00 +23°C° 0 mm 2 m/s 751 mmHg 63%
Mostrar mais